Terug naar catalogus

KUIPER-00169

ActiefCommunicatieLEO
NORAD 65782·PAYLOAD·🇺🇸 United States

Gelanceerd Sep 25, 2025 vanaf Cape Canaveral Space Force Station

Loading…

Volgende Passages (komende 24 uur)

TLE

VersSource: CelesTrak SupGP

Epoch: Sep 14, 2026, 20:23 UTC

1 65782C 25217W   26257.84976852  .00000474  00000+0  62103-4 0  2573
2 65782  51.9000 276.6597 0000607  88.7413 116.0627 14.79917977    16

Volg KUIPER-00169 in realtime met AllMySat

Download on the App Store